Location: Unspecified
(0.0000°N, 0.0000°E)
Time: 05:38:16
(UTC+02:00)

SeaSat 1 - Visible Passes

Search period start: 29 August 2016 00:00
Search period end: 08 September 2016 00:00
Orbit: 745 x 748 km, 108.0° (Epoch: 28 August)

Date Brightness Start Highest point End Pass type
(mag) Time Alt. Az. Time Alt. Az. Time Alt. Az.
29 Aug 3.0 06:25:49 10° SSE 06:30:39 58° ENE 06:35:29 10° N visible
30 Aug 5.2 05:45:55 10° ESE 05:48:52 16° ENE 05:51:49 10° NNE visible
30 Aug 3.1 07:21:45 10° S 07:26:08 33° WSW 07:30:31 10° NW visible
31 Aug 2.8 06:39:26 10° SSE 06:44:20 67° ENE 06:49:13 10° NNW visible
01 Sep 5.1 05:59:13 10° ESE 06:02:33 18° ENE 06:05:52 10° NNE visible
01 Sep 3.3 07:35:36 10° S 07:39:49 29° WSW 07:44:01 10° NW visible
02 Sep 2.6 06:53:06 10° SSE 06:58:01 77° ENE 07:02:55 10° NNW visible
03 Sep 4.9 06:12:35 10° ESE 06:16:13 21° ENE 06:19:51 10° NNE visible
03 Sep 5.8 20:19:13 10° NW 20:21:09 12° WNW 20:23:06 10° W visible
04 Sep 2.5 07:06:45 10° SSE 07:11:42 88° ENE 07:16:37 10° NNW visible
05 Sep 4.8 06:25:59 10° ESE 06:29:54 24° ENE 06:33:47 10° NNE visible
05 Sep 6.0 20:33:56 10° WNW 20:34:49 10° WNW 20:35:43 10° WNW visible
06 Sep 2.4 07:20:27 10° SSE 07:25:22 81° WSW 07:30:17 10° NNW visible
07 Sep 4.6 06:39:26 10° SE 06:43:34 27° ENE 06:47:41 10° N visible
